{"data":{"norad_id":62269,"epoch":"2026-05-25T04:13:20.878176Z","epoch_age_seconds":70256,"freshness":"FRESH","line1":"1 62269U 24237C   26145.17593609  .00180980  00000+0  13820-2 0  9992","line2":"2 62269  42.9994 315.3923 0001392 289.1437  70.9280 15.70863969 85080","mean_motion":15.70863969,"eccentricity":0.0001392,"inclination_deg":42.9994,"raan_deg":315.3923,"arg_perigee_deg":289.1437,"mean_anomaly_deg":70.928,"bstar":0.001382,"rev_number":8508,"period_min":91.669299724068,"perigee_km":355.489103305,"apogee_km":357.36400579859,"semimajor_km":6734.5635545518,"source":"CELESTRAK","updated_at":"2026-05-25T13:38:19.641260Z"}}